Location: Nena
(32.3271°N, 96.8558°W)
Time: 06:16:24
(UTC+00:00)

Cosmos 1809 Rocket - Pass Details

Date: 06 October 2022
Orbit: 941 x 963 km, 82.5° (Epoch: 06 December)

Event Time Altitude Azimuth Distance (km) Brightness Sun altitude
Rises 11:58:15 0° 352° (N) 3,635 7.4 -6.4°
Reaches altitude 10° 12:00:44 10° 351° (N) 2,689 6.7 -5.9°
Maximum altitude 12:06:54 80° 265° (W) 977 4.5 -4.6°
Drops below altitude 10° 12:13:02 10° 180° (S) 2,685 6.9 -3.3°
Sets 12:15:32 0° 179° (S) 3,630 7.6 -2.8°
